F1ZVN-13 Weather Reports


Display with metric or nautical units.
time (UTC)temp
F
wind
direction
speed
MPH
gust
MPH
rain 1hr
in
rain 24hr
in
rain mn
in
humidity
%
barometer
mb
20260504141245 45 180 0.0 0.0 0.00 0.00 0.00 82 1002.7
20260504140436 45 180 0.0 0.0 0.00 0.00 0.00 84 1002.7
20260504140238 45 180 0.0 0.0 0.00 0.00 0.00 85 1002.7
20260504130801 45 180 0.0 0.0 0.00 0.00 0.00 82 1003.1
20260504130602 45 180 0.0 0.0 0.00 0.00 0.00 79 1002.9
20260504130357 46 180 0.0 0.0 0.00 0.00 0.00 79 1002.9
20260504110657 46 180 0.0 0.0 0.00 0.00 0.00 77 1004.0
20260504110249 46 180 0.0 0.0 0.00 0.00 0.00 74 1003.8
20260504100608 44 180 0.0 0.0 0.00 0.00 0.00 81 1004.3
20260504100408 44 180 0.0 0.0 0.00 0.00 0.00 81 1004.3
20260504100210 44 180 0.0 0.0 0.00 0.00 0.00 78 1004.3
20260504081903 41 180 0.0 0.0 0.00 0.00 0.00 89 1004.6
20260504081701 41 180 0.0 0.0 0.00 0.00 0.00 90 1004.6
20260504081500 41 180 0.0 0.0 0.00 0.00 0.00 91 1004.6
20260504081258 41 180 0.0 0.0 0.00 0.00 0.00 91 1004.6
20260504080655 41 180 0.0 0.0 0.00 0.00 0.00 92 1004.6
20260504080452 41 180 0.0 0.0 0.00 0.00 0.00 91 1004.6
20260504080254 41 180 0.0 0.0 0.00 0.00 0.00 92 1004.6
20260504070215 39 180 0.0 0.0 0.00 0.00 0.00 95 1004.6
20260504060137 39 180 0.0 0.0 0.00 0.00 0.00 90 1004.3
20260504050701 39 180 0.0 0.0 0.00 0.00 0.00 89 1004.3
20260504050501 39 180 0.0 0.0 0.00 0.00 0.00 87 1004.5
20260504050258 39 180 0.0 0.0 0.00 0.00 0.00 87 1004.3
20260504045855 39 180 0.0 0.0 0.00 0.00 0.00 89 1004.3
20260504045656 39 180 0.0 0.0 0.00 0.00 0.00 90 1004.2
20260504045453 39 180 0.0 0.0 0.00 0.00 0.00 90 1004.2
20260504045253 39 180 0.0 0.0 0.00 0.00 0.00 90 1004.2
20260504045051 39 180 0.0 0.0 0.00 0.00 0.00 89 1004.2
20260504044851 38 180 0.0 0.0 0.00 0.00 0.00 89 1004.2
20260504044648 39 180 0.0 0.0 0.00 0.00 0.00 88 1004.2
20260504044524 39 180 0.0 0.0 0.00 0.00 0.00 89 1004.2
20260504044448 39 180 0.0 0.0 0.00 0.00 0.00 89 1004.2
20260504044246 39 180 0.0 0.0 0.00 0.00 0.00 88 1004.2
20260504044046 39 180 0.0 0.0 0.00 0.00 0.00 87 1004.2
20260504043843 40 180 0.0 0.0 0.00 0.00 0.00 85 1004.2
20260504043441 39 180 0.0 0.0 0.00 0.00 0.00 86 1004.3
20260504043320 39 180 0.0 0.0 0.00 0.00 0.00 88 1004.2
20260504043242 39 180 0.0 0.0 0.00 0.00 0.00 88 1004.2
20260504042838 39 180 0.0 0.0 0.00 0.00 0.00 87 1004.5
20260504042636 39 180 0.0 0.0 0.00 0.00 0.00 87 1004.3
20260504042436 39 180 0.0 0.0 0.00 0.00 0.00 87 1004.3
20260504042317 39 180 0.0 0.0 0.00 0.00 0.00 88 1004.3
20260504042234 39 180 0.0 0.0 0.00 0.00 0.00 88 1004.3
20260504041831 39 180 0.0 0.0 0.00 0.00 0.00 90 1004.5
20260504041428 39 180 0.0 0.0 0.00 0.00 0.00 90 1004.5
20260504041229 39 180 0.0 0.0 0.00 0.00 0.00 89 1004.3
20260504040826 38 180 0.0 0.0 0.00 0.00 0.00 92 1004.5
20260504040624 38 180 0.0 0.0 0.00 0.00 0.00 92 1004.5
20260504040424 39 180 0.0 0.0 0.00 0.00 0.00 92 1004.5
20260504040221 38 180 0.0 0.0 0.00 0.00 0.00 92 1004.5
20260504035819 39 180 0.0 0.0 0.00 0.00 0.00 92 1004.5
20260504035619 39 180 0.0 0.0 0.00 0.00 0.00 91 1004.5
20260504035416 39 180 0.0 0.0 0.00 0.00 0.00 92 1004.5
20260504035216 39 180 0.0 0.0 0.00 0.00 0.00 91 1004.5
20260504035014 39 180 0.0 0.0 0.00 0.00 0.00 91 1004.5
20260504034814 39 180 0.0 0.0 0.00 0.00 0.00 92 1004.3
20260504034452 39 180 0.0 0.0 0.00 0.00 0.00 92 1004.3
20260504034412 39 180 0.0 0.0 0.00 0.00 0.00 92 1004.3
20260504034213 39 180 0.0 0.0 0.00 0.00 0.00 92 1004.3
20260504034009 39 180 0.0 0.0 0.00 0.00 0.00 91 1004.3
20260504033806 39 180 0.0 0.0 0.00 0.00 0.00 89 1004.3
20260504033404 39 180 0.0 0.0 0.00 0.00 0.00 92 1004.3
20260504033204 39 180 0.0 0.0 0.00 0.00 0.00 92 1004.5
20260504033001 39 180 0.0 0.0 0.00 0.00 0.00 91 1004.5
20260504032802 39 180 0.0 0.0 0.00 0.00 0.00 91 1004.5
20260504032600 39 180 0.0 0.0 0.00 0.00 0.00 92 1004.5
20260504032359 39 180 0.0 0.0 0.00 0.00 0.00 93 1004.3
20260504032156 39 180 0.0 0.0 0.00 0.00 0.00 94 1004.5
20260504031957 39 180 0.0 0.0 0.00 0.00 0.00 94 1004.5
20260504031758 39 180 0.0 0.0 0.00 0.00 0.00 94 1004.5
20260504031754 39 180 0.0 0.0 0.00 0.00 0.00 94 1004.5
20260504031600 39 180 0.0 0.0 0.00 0.00 0.00 95 1004.5
20260504031555 39 180 0.0 0.0 0.00 0.00 0.00 95 1004.5
20260504031352 39 180 0.0 0.0 0.00 0.00 0.00 94 1004.6
20260504031154 39 180 0.0 0.0 0.00 0.00 0.00 95 1004.6
20260504031033 39 180 0.0 0.0 0.00 0.00 0.00 94 1004.6
20260504030949 39 180 0.0 0.0 0.00 0.00 0.00 94 1004.6
20260504030547 39 180 0.0 0.0 0.00 0.00 0.00 95 1004.6
20260504030347 39 180 0.0 0.0 0.00 0.00 0.00 95 1004.6
20260504030144 39 180 0.0 0.0 0.00 0.00 0.00 95 1004.6
20260504025944 39 180 0.0 0.0 0.00 0.00 0.00 94 1004.6
20260504025934 39 180 0.0 0.0 0.00 0.00 0.00 94 1004.6
20260504025742 39 180 0.0 0.0 0.00 0.00 0.00 94 1004.6
20260504025542 39 180 0.0 0.0 0.00 0.00 0.00 94 1004.6
20260504025339 39 180 0.0 0.0 0.00 0.00 0.00 94 1004.5
20260504025145 39 180 0.0 0.0 0.00 0.00 0.00 94 1004.5
20260504025139 39 180 0.0 0.0 0.00 0.00 0.00 94 1004.5
20260504024937 39 180 0.0 0.0 0.00 0.00 0.00 94 1004.6
20260504024737 39 180 0.0 0.0 0.00 0.00 0.00 94 1004.6
20260504024534 39 180 0.0 0.0 0.00 0.00 0.00 95 1004.6
20260504024335 39 180 0.0 0.0 0.00 0.00 0.00 95 1004.5
20260504024132 39 180 0.0 0.0 0.00 0.00 0.00 92 1004.5
20260504024115 39 180 0.0 0.0 0.00 0.00 0.00 92 1004.5
20260504023936 39 180 0.0 0.0 0.00 0.00 0.00 91 1004.5
20260504023729 39 180 0.0 0.0 0.00 0.00 0.00 92 1004.5
20260504023530 39 180 0.0 0.0 0.00 0.00 0.00 92 1004.5
20260504023327 39 180 0.0 0.0 0.00 0.00 0.00 91 1004.3
20260504023127 39 180 0.0 0.0 0.00 0.00 0.00 89 1004.3
20260504022924 39 180 0.0 0.0 0.00 0.00 0.00 91 1004.5
20260504022725 40 180 0.0 0.0 0.00 0.00 0.00 90 1004.3
20260504022522 40 180 0.0 0.0 0.00 0.00 0.00 88 1004.5
20260504022322 40 180 0.0 0.0 0.00 0.00 0.00 89 1004.3
20260504021920 39 180 0.0 0.0 0.00 0.00 0.00 93 1004.3
20260504021717 39 180 0.0 0.0 0.00 0.00 0.00 92 1004.3
20260504021522 39 180 0.0 0.0 0.00 0.00 0.00 92 1004.3
20260504021315 39 180 0.0 0.0 0.00 0.00 0.00 93 1004.3
20260504021117 39 180 0.0 0.0 0.00 0.00 0.00 92 1004.3
20260504020917 39 180 0.0 0.0 0.00 0.00 0.00 92 1004.3
20260504020914 39 180 0.0 0.0 0.00 0.00 0.00 92 1004.3
20260504020712 39 180 0.0 0.0 0.00 0.00 0.00 93 1004.5
20260504020532 39 180 0.0 0.0 0.00 0.00 0.00 95 1004.3
20260504020510 39 180 0.0 0.0 0.00 0.00 0.00 95 1004.5
20260504020310 39 180 0.0 0.0 0.00 0.00 0.00 95 1004.3
20260504020110 39 180 0.0 0.0 0.00 0.00 0.00 95 1004.3
20260504015908 39 180 0.0 0.0 0.00 0.00 0.00 95 1004.5
20260504015705 39 180 0.0 0.0 0.00 0.00 0.00 95 1004.5
20260504015505 39 180 0.0 0.0 0.00 0.00 0.00 94 1004.5
20260504015304 39 180 0.0 0.0 0.00 0.00 0.00 94 1004.5
20260504015104 39 180 0.0 0.0 0.00 0.00 0.00 88 1004.5
20260504014900 39 180 0.0 0.0 0.00 0.00 0.00 93 1004.3
20260504014702 39 180 0.0 0.0 0.00 0.00 0.00 92 1004.5
20260504014459 39 180 0.0 0.0 0.00 0.00 0.00 92 1004.3
20260504014457 39 180 0.0 0.0 0.00 0.00 0.00 92 1004.3
20260504014257 39 180 0.0 0.0 0.00 0.00 0.00 95 1004.3
20260504014100 39 180 0.0 0.0 0.00 0.00 0.00 95 1004.5
20260504013855 39 180 0.0 0.0 0.00 0.00 0.00 95 1004.5
20260504013652 39 180 0.0 0.0 0.00 0.00 0.00 95 1004.5
20260504013458 39 180 0.0 0.0 0.00 0.00 0.00 95 1004.5
20260504013250 39 180 0.0 0.0 0.00 0.00 0.00 95 1004.5
20260504013050 39 180 0.0 0.0 0.00 0.00 0.00 96 1004.5
20260504012848 39 180 0.0 0.0 0.00 0.00 0.00 96 1004.3
20260504012738 39 180 0.0 0.0 0.00 0.00 0.00 95 1004.5
20260504012648 39 180 0.0 0.0 0.00 0.00 0.00 95 1004.5
20260504012445 39 180 0.0 0.0 0.00 0.00 0.00 94 1004.3
20260504012245 39 180 0.0 0.0 0.00 0.00 0.00 93 1004.5
20260504012043 39 180 0.0 0.0 0.00 0.00 0.00 95 1004.5
20260504011643 39 180 0.0 0.0 0.00 0.00 0.00 94 1004.5
20260504011238 39 180 0.0 0.0 0.00 0.00 0.00 94 1004.6
20260504011038 39 180 0.0 0.0 0.00 0.00 0.00 94 1004.6
20260504010910 39 180 0.0 0.0 0.00 0.00 0.00 94 1004.5
20260504010835 39 180 0.0 0.0 0.00 0.00 0.00 94 1004.5
20260504010433 39 180 0.0 0.0 0.00 0.00 0.00 94 1004.5
20260504005629 39 180 0.0 0.0 0.00 0.00 0.00 93 1004.7
20260504005514 40 180 0.0 0.0 0.00 0.00 0.00 93 1004.7
20260504005428 40 180 0.0 0.0 0.00 0.00 0.00 93 1004.7
20260504005225 40 180 0.0 0.0 0.00 0.00 0.00 92 1004.7
20260504004909 40 180 0.0 0.0 0.00 0.00 0.00 92 1004.6
20260504004823 40 180 0.0 0.0 0.00 0.00 0.00 92 1004.6
20260504004628 40 180 0.0 0.0 0.00 0.00 0.00 93 1004.7
20260504004420 40 180 0.0 0.0 0.00 0.00 0.00 92 1004.6
20260504004221 40 180 0.0 0.0 0.00 0.00 0.00 89 1004.6
20260504003819 39 180 0.0 0.0 0.00 0.00 0.00 94 1004.5
20260504003622 39 180 0.0 0.0 0.00 0.00 0.00 95 1004.6
20260504003615 39 180 0.0 0.0 0.00 0.00 0.00 95 1004.6
20260504003416 39 180 0.0 0.0 0.00 0.00 0.00 94 1004.6
20260504003214 39 180 0.0 0.0 0.00 0.00 0.00 95 1004.5
20260504002911 39 180 0.0 0.0 0.00 0.00 0.00 95 1004.6
20260504002811 39 180 0.0 0.0 0.00 0.00 0.00 95 1004.6
20260504002611 39 180 0.0 0.0 0.00 0.00 0.00 95 1004.6
20260504002412 39 180 0.0 0.0 0.00 0.00 0.00 94 1004.6
20260504002208 39 180 0.0 0.0 0.00 0.00 0.00 94 1004.6
20260504001806 39 180 0.0 0.0 0.00 0.00 0.00 93 1004.7
20260504001604 39 180 0.0 0.0 0.00 0.00 0.00 93 1004.7
20260504001403 39 180 0.0 0.0 0.00 0.00 0.00 94 1004.6
20260504001201 39 180 0.0 0.0 0.00 0.00 0.00 95 1004.7
20260504001001 39 180 0.0 0.0 0.00 0.00 0.00 95 1004.7
20260504000758 39 180 0.0 0.0 0.00 0.00 0.00 95 1004.7
20260504000356 39 180 0.0 0.0 0.00 0.00 0.00 95 1004.9
20260504000157 39 180 0.0 0.0 0.00 0.00 0.00 95 1004.9
20260503235954 39 180 0.0 0.0 0.00 0.00 0.00 95 1004.9
20260503235800 39 180 0.0 0.0 0.00 0.00 0.00 94 1004.9
20260503235754 39 180 0.0 0.0 0.00 0.00 0.00 94 1004.9
20260503235552 39 180 0.0 0.0 0.00 0.00 0.00 95 1004.9
20260503235351 39 180 0.0 0.0 0.00 0.00 0.00 95 1004.9
20260503235148 39 180 0.0 0.0 0.00 0.00 0.00 95 1004.9
20260503234948 39 180 0.0 0.0 0.00 0.00 0.00 95 1004.9
20260503234825 39 180 0.0 0.0 0.00 0.00 0.00 95 1004.9
20260503234747 39 180 0.0 0.0 0.00 0.00 0.00 95 1004.9
20260503234547 39 180 0.0 0.0 0.00 0.00 0.00 95 1005.0
20260503234143 39 180 0.0 0.0 0.00 0.00 0.00 93 1005.0
20260503233757 39 180 0.0 0.0 0.00 0.00 0.00 92 1005.1
20260503233340 39 180 0.0 0.0 0.00 0.00 0.00 93 1005.0
20260503233210 39 180 0.0 0.0 0.00 0.00 0.00 94 1005.1
20260503233136 39 180 0.0 0.0 0.00 0.00 0.00 94 1005.1
20260503232936 39 180 0.0 0.0 0.00 0.00 0.00 94 1005.1
20260503232734 39 180 0.0 0.0 0.00 0.00 0.00 94 1005.1
20260503232534 39 180 0.0 0.0 0.00 0.00 0.00 94 1005.1
20260503232332 39 180 0.0 0.0 0.00 0.00 0.00 94 1005.1
20260503232132 39 180 0.0 0.0 0.00 0.00 0.00 89 1005.1
20260503231929 39 180 0.0 0.0 0.00 0.00 0.00 93 1005.2
20260503231729 39 180 0.0 0.0 0.00 0.00 0.00 93 1005.2
20260503231526 39 180 0.0 0.0 0.00 0.00 0.00 94 1005.2
20260503231326 39 180 0.0 0.0 0.00 0.00 0.00 94 1005.2
20260503231124 39 180 0.0 0.0 0.00 0.00 0.00 95 1005.2
20260503230924 39 180 0.0 0.0 0.00 0.00 0.00 95 1005.2
20260503230728 39 180 0.0 0.0 0.00 0.00 0.00 95 1005.2
20260503230527 39 180 0.0 0.0 0.00 0.00 0.00 95 1005.2
20260503230337 39 180 0.0 0.0 0.00 0.00 0.00 95 1005.2
20260503230200 39 180 0.0 0.0 0.00 0.00 0.00 95 1005.2
20260503230120 39 180 0.0 0.0 0.00 0.00 0.00 95 1005.2
20260503225917 40 180 0.0 0.0 0.00 0.00 0.00 94 1005.2
20260503225716 40 180 0.0 0.0 0.00 0.00 0.00 93 1005.2
20260503225514 40 180 0.0 0.0 0.00 0.00 0.00 93 1005.2
20260503225314 40 180 0.0 0.0 0.00 0.00 0.00 93 1005.2
20260503225113 40 180 0.0 0.0 0.00 0.00 0.00 94 1005.2
20260503224915 39 180 0.0 0.0 0.00 0.00 0.00 94 1005.2
20260503224710 40 180 0.0 0.0 0.00 0.00 0.00 94 1005.2
20260503224509 40 180 0.0 0.0 0.00 0.00 0.00 95 1005.2
20260503224306 40 180 0.0 0.0 0.00 0.00 0.00 95 1005.4
20260503224114 40 180 0.0 0.0 0.00 0.00 0.00 95 1005.2
20260503223904 40 180 0.0 0.0 0.00 0.00 0.00 95 1005.2
20260503223710 40 180 0.0 0.0 0.00 0.00 0.00 95 1005.2
20260503223301 40 180 0.0 0.0 0.00 0.00 0.00 95 1005.2
20260503223059 40 180 0.0 0.0 0.00 0.00 0.00 95 1005.1
20260503222859 40 180 0.0 0.0 0.00 0.00 0.00 95 1005.1
20260503222656 40 180 0.0 0.0 0.00 0.00 0.00 95 1005.1
20260503222535 40 180 0.0 0.0 0.00 0.00 0.00 95 1005.2
20260503222456 40 180 0.0 0.0 0.00 0.00 0.00 95 1005.2
20260503222254 40 180 0.0 0.0 0.00 0.00 0.00 95 1005.2
20260503222054 40 180 0.0 0.0 0.00 0.00 0.00 95 1005.2
20260503221851 40 180 0.0 0.0 0.00 0.00 0.00 95 1005.4
20260503221652 40 180 0.0 0.0 0.00 0.00 0.00 94 1005.4
20260503221449 40 180 0.0 0.0 0.00 0.00 0.00 94 1005.4
20260503221249 40 180 0.0 0.0 0.00 0.00 0.00 94 1005.5
20260503220847 40 180 0.0 0.0 0.00 0.00 0.00 92 1005.4
20260503220644 40 180 0.0 0.0 0.00 0.00 0.00 92 1005.5
20260503220246 40 180 0.0 0.0 0.00 0.00 0.00 93 1005.5
20260503220051 40 180 0.0 0.0 0.00 0.00 0.00 95 1005.6
20260503215647 40 180 0.0 0.0 0.00 0.00 0.00 95 1005.6
20260503215639 40 180 0.0 0.0 0.00 0.00 0.00 95 1005.6
20260503215510 40 180 0.0 0.0 0.00 0.00 0.00 95 1005.6
20260503215436 40 180 0.0 0.0 0.00 0.00 0.00 95 1005.6
20260503215240 40 180 0.0 0.0 0.00 0.00 0.00 96 1005.8
20260503215034 40 180 0.0 0.0 0.00 0.00 0.00 96 1005.8
20260503214834 40 180 0.0 0.0 0.00 0.00 0.00 96 1005.8
20260503214632 40 180 0.0 0.0 0.00 0.00 0.00 96 1005.8
20260503214431 40 180 0.0 0.0 0.00 0.00 0.00 95 1005.8
20260503214245 40 180 0.0 0.0 0.00 0.00 0.00 95 1005.8
20260503214030 40 180 0.0 0.0 0.00 0.00 0.00 95 1005.8
20260503213826 40 180 0.0 0.0 0.00 0.00 0.00 96 1005.8
20260503213626 40 180 0.0 0.0 0.00 0.00 0.00 94 1005.8
20260503213429 40 180 0.0 0.0 0.00 0.00 0.00 96 1005.8
20260503213224 40 180 0.0 0.0 0.00 0.00 0.00 96 1005.8
20260503213021 40 180 0.0 0.0 0.00 0.00 0.00 96 1005.6
20260503212907 40 180 0.0 0.0 0.00 0.00 0.00 97 1005.6
20260503212821 40 180 0.0 0.0 0.00 0.00 0.00 97 1005.6
20260503212618 40 180 0.0 0.0 0.00 0.00 0.00 96 1005.6
20260503212418 40 180 0.0 0.0 0.00 0.00 0.00 96 1005.6
20260503212216 40 180 0.0 0.0 0.00 0.00 0.00 96 1005.6
20260503212016 40 180 0.0 0.0 0.00 0.00 0.00 96 1005.5
20260503211814 40 180 0.0 0.0 0.00 0.00 0.00 96 1005.5
20260503211613 40 180 0.0 0.0 0.00 0.00 0.00 96 1005.5
20260503211412 40 180 0.0 0.0 0.00 0.00 0.00 96 1005.5
20260503211211 40 180 0.0 0.0 0.00 0.00 0.00 96 1005.5
20260503211016 40 180 0.0 0.0 0.00 0.00 0.00 96 1005.5
20260503210808 40 180 0.0 0.0 0.00 0.00 0.00 96 1005.5
20260503210606 40 180 0.0 0.0 0.00 0.00 0.00 96 1005.5
20260503210406 40 180 0.0 0.0 0.00 0.00 0.00 96 1005.4
20260503210203 40 180 0.0 0.0 0.00 0.00 0.00 95 1005.4
20260503210003 40 180 0.0 0.0 0.00 0.00 0.00 95 1005.4
20260503205800 40 180 0.0 0.0 0.00 0.00 0.00 96 1005.4
20260503205358 40 180 0.0 0.0 0.00 0.00 0.00 96 1005.4
20260503205158 40 180 0.0 0.0 0.00 0.00 0.00 96 1005.2
20260503204955 40 180 0.0 0.0 0.00 0.00 0.00 95 1005.2
20260503204755 40 180 0.0 0.0 0.00 0.00 0.00 96 1005.2
20260503204557 40 180 0.0 0.0 0.00 0.00 0.00 96 1005.1
20260503204400 40 180 0.0 0.0 0.00 0.00 0.00 96 1005.0
20260503204150 40 180 0.0 0.0 0.00 0.00 0.00 95 1005.1
20260503203950 40 180 0.0 0.0 0.00 0.00 0.00 97 1005.1
20260503203748 40 180 0.0 0.0 0.00 0.00 0.00 97 1005.0
20260503203556 40 180 0.0 0.0 0.00 0.00 0.00 97 1004.9
20260503203345 40 180 0.0 0.0 0.00 0.00 0.00 97 1005.1
20260503203146 40 180 0.0 0.0 0.00 0.00 0.00 97 1005.0
20260503202943 40 180 0.0 0.0 0.00 0.00 0.00 97 1005.0
20260503202340 40 180 0.0 0.0 0.00 0.00 0.00 98 1004.9
20260503202138 40 180 0.0 0.0 0.00 0.00 0.00 98 1004.9
20260503201938 40 180 0.0 0.0 0.00 0.00 0.00 99 1004.7
20260503201735 40 180 0.0 0.0 0.00 0.00 0.00 98 1004.7
20260503201536 40 180 0.0 0.0 0.00 0.00 0.00 98 1004.7
20260503201333 40 180 0.0 0.0 0.00 0.00 0.00 98 1004.7
20260503201209 40 180 0.0 0.0 0.00 0.00 0.00 98 1004.7
20260503201133 40 180 0.0 0.0 0.00 0.00 0.00 98 1004.7
20260503200933 40 180 0.0 0.0 0.00 0.00 0.00 97 1004.7
20260503200735 40 180 0.0 0.0 0.00 0.00 0.00 98 1004.6
20260503200527 40 180 0.0 0.0 0.00 0.00 0.00 98 1004.7
20260503200125 40 180 0.0 0.0 0.00 0.00 0.00 97 1004.5
20260503195926 40 180 0.0 0.0 0.00 0.00 0.00 97 1004.5
20260503195729 40 180 0.0 0.0 0.00 0.00 0.00 97 1004.5
20260503195523 40 180 0.0 0.0 0.00 0.00 0.00 96 1004.3
20260503195418 41 180 0.0 0.0 0.00 0.00 0.00 96 1004.3
20260503195320 41 180 0.0 0.0 0.00 0.00 0.00 96 1004.3
20260503194917 40 180 0.0 0.0 0.00 0.00 0.00 97 1004.2
20260503194833 41 180 0.0 0.0 0.00 0.00 0.00 97 1004.1
20260503194721 41 180 0.0 0.0 0.00 0.00 0.00 97 1004.1
20260503194521 40 180 0.0 0.0 0.00 0.00 0.00 97 1004.1
20260503194317 41 180 0.0 0.0 0.00 0.00 0.00 97 1004.1
20260503194113 41 180 0.0 0.0 0.00 0.00 0.00 97 1004.1
20260503193917 41 180 0.0 0.0 0.00 0.00 0.00 97 1004.0
20260503193510 40 180 0.0 0.0 0.00 0.00 0.00 97 1004.0
20260503193307 41 180 0.0 0.0 0.00 0.00 0.00 96 1003.8
20260503193107 41 180 0.0 0.0 0.00 0.00 0.00 96 1003.8
20260503192905 41 180 0.0 0.0 0.00 0.00 0.00 96 1003.8
20260503192705 41 180 0.0 0.0 0.00 0.00 0.00 96 1003.7
20260503192503 41 180 0.0 0.0 0.00 0.00 0.00 95 1003.7
20260503192305 41 180 0.0 0.0 0.00 0.00 0.00 95 1003.6
20260503192103 41 180 0.0 0.0 0.00 0.00 0.00 96 1003.7
20260503191900 41 180 0.0 0.0 0.00 0.00 0.00 96 1003.7
20260503191657 41 180 0.0 0.0 0.00 0.00 0.00 96 1003.6
20260503191457 41 180 0.0 0.0 0.00 0.00 0.00 96 1003.6
20260503191255 41 180 0.0 0.0 0.00 0.00 0.00 96 1003.7
20260503191055 41 180 0.0 0.0 0.00 0.00 0.00 95 1003.7
20260503190852 41 180 0.0 0.0 0.00 0.00 0.00 96 1003.7
20260503190652 41 180 0.0 0.0 0.00 0.00 0.00 96 1003.7
20260503190250 41 180 0.0 0.0 0.00 0.00 0.00 96 1003.7
20260503185847 41 180 0.0 0.0 0.00 0.00 0.00 95 1003.7
20260503185646 41 180 0.0 0.0 0.00 0.00 0.00 95 1003.6
20260503185445 41 180 0.0 0.0 0.00 0.00 0.00 95 1003.7
20260503185321 41 180 0.0 0.0 0.00 0.00 0.00 95 1003.6
20260503185246 41 180 0.0 0.0 0.00 0.00 0.00 95 1003.6
20260503184842 41 180 0.0 0.0 0.00 0.00 0.00 95 1003.6
20260503184641 41 180 0.0 0.0 0.00 0.00 0.00 95 1003.6
20260503184454 41 180 0.0 0.0 0.00 0.00 0.00 95 1003.4
20260503184438 41 180 0.0 0.0 0.00 0.00 0.00 95 1003.6
20260503184239 41 180 0.0 0.0 0.00 0.00 0.00 95 1003.4
20260503183841 41 180 0.0 0.0 0.00 0.00 0.00 94 1003.7
20260503183434 41 180 0.0 0.0 0.00 0.00 0.00 93 1003.7
20260503183232 41 180 0.0 0.0 0.00 0.00 0.00 94 1003.7
20260503183043 41 180 0.0 0.0 0.00 0.00 0.00 94 1003.7
20260503182828 41 180 0.0 0.0 0.00 0.00 0.00 94 1003.7
20260503182628 41 180 0.0 0.0 0.00 0.00 0.00 93 1003.8
20260503182426 41 180 0.0 0.0 0.00 0.00 0.00 93 1003.7
20260503182229 41 180 0.0 0.0 0.00 0.00 0.00 93 1003.7
20260503182027 41 180 0.0 0.0 0.00 0.00 0.00 94 1003.7
20260503181824 41 180 0.0 0.0 0.00 0.00 0.00 94 1003.7
20260503181621 41 180 0.0 0.0 0.00 0.00 0.00 94 1003.8
20260503181422 41 180 0.0 0.0 0.00 0.00 0.00 94 1004.0
20260503180816 41 180 0.0 0.0 0.00 0.00 0.00 95 1003.8
20260503180622 41 180 0.0 0.0 0.00 0.00 0.00 95 1004.0
20260503180216 41 180 0.0 0.0 0.00 0.00 0.00 95 1003.8
20260503175813 41 180 0.0 0.0 0.00 0.00 0.00 95 1004.0
20260503175607 41 180 0.0 0.0 0.00 0.00 0.00 95 1004.0
20260503175443 41 180 0.0 0.0 0.00 0.00 0.00 95 1004.0
20260503175411 41 180 0.0 0.0 0.00 0.00 0.00 95 1004.0
20260503175205 42 180 0.0 0.0 0.00 0.00 0.00 95 1004.1
20260503174803 41 180 0.0 0.0 0.00 0.00 0.00 93 1004.1
20260503174602 41 180 0.0 0.0 0.00 0.00 0.00 94 1004.1
20260503174401 41 180 0.0 0.0 0.00 0.00 0.00 94 1004.1
20260503174200 41 180 0.0 0.0 0.00 0.00 0.00 94 1004.1
20260503173758 42 180 0.0 0.0 0.00 0.00 0.00 95 1004.2
20260503173554 42 180 0.0 0.0 0.00 0.00 0.00 93 1004.2
20260503173357 42 180 0.0 0.0 0.00 0.00 0.00 94 1004.1
20260503173155 42 180 0.0 0.0 0.00 0.00 0.00 94 1004.2
20260503172952 42 180 0.0 0.0 0.00 0.00 0.00 94 1004.2
20260503172751 42 180 0.0 0.0 0.00 0.00 0.00 93 1004.2
20260503172554 42 180 0.0 0.0 0.00 0.00 0.00 93 1004.1
20260503172348 42 180 0.0 0.0 0.00 0.00 0.00 94 1004.2
20260503172151 42 180 0.0 0.0 0.00 0.00 0.00 93 1004.1
20260503171948 42 180 0.0 0.0 0.00 0.00 0.00 93 1004.0
20260503171837 42 180 0.0 0.0 0.00 0.00 0.00 93 1004.1
20260503171750 42 180 0.0 0.0 0.00 0.00 0.00 93 1004.1
20260503171546 42 180 0.0 0.0 0.00 0.00 0.00 93 1004.2
20260503171344 42 180 0.0 0.0 0.00 0.00 0.00 93 1004.1
20260503171143 42 180 0.0 0.0 0.00 0.00 0.00 93 1004.1
20260503170738 42 180 0.0 0.0 0.00 0.00 0.00 94 1004.1
20260503170336 42 180 0.0 0.0 0.00 0.00 0.00 93 1004.2
20260503150908 45 180 0.0 0.0 0.00 0.00 0.00 85 1004.9
20260503150826 45 180 0.0 0.0 0.00 0.00 0.00 85 1004.9
20260503150622 45 180 0.0 0.0 0.00 0.00 0.00 84 1004.9
20260503150423 45 180 0.0 0.0 0.00 0.00 0.00 85 1005.0
20260503150222 45 180 0.0 0.0 0.00 0.00 0.00 85 1005.0